EW0415 Weather Reports


time (UTC)temp
C
wind
direction
speed
KPH
gust
KPH
rain 1hr
cm
rain 24hr
cm
rain mn
cm
humidity
%
barometer
mb
20260904045518 18 342 3.2 9.7 0.00 0.25 0.25 73 1012.0
20260904045021 18 346 3.2 9.7 0.00 0.25 0.25 73 1012.1
20260904044532 18 334 3.2 8.0 0.00 0.25 0.25 73 1012.2
20260904044018 18 360 1.6 6.4 0.00 0.25 0.25 72 1012.4
20260904043515 18 0 0.0 9.7 0.00 0.25 0.25 72 1012.4
20260904043033 18 13 3.2 12.9 0.00 0.25 0.25 72 1012.3
20260904042518 18 50 3.2 12.9 0.00 0.25 0.25 72 1012.4
20260904042016 18 340 3.2 12.9 0.00 0.25 0.25 73 1012.2
20260904041536 18 338 3.2 12.9 0.00 0.25 0.25 72 1012.5
20260904041023 18 0 3.2 9.7 0.00 0.25 0.25 73 1012.7
20260904040519 18 344 1.6 8.0 0.00 0.25 0.25 73 1012.7
20260904040031 18 342 3.2 9.7 0.00 0.25 0.25 73 1012.9
20260904035519 18 14 3.2 16.1 0.00 0.25 0.25 73 1013.0
20260904035018 18 19 4.8 16.1 0.00 0.25 0.25 73 1013.2
20260904034535 18 355 3.2 14.5 0.00 0.25 0.25 74 1013.2
20260904034018 18 360 3.2 14.5 0.00 0.25 0.25 75 1013.3
20260904033516 18 26 4.8 14.5 0.00 0.25 0.25 76 1013.7
20260904033127 17 60 6.4 14.5 0.00 0.25 0.25 77 1013.5
20260904032517 17 72 6.4 14.5 0.08 0.25 0.25 78 1013.7
20260904032019 17 96 4.8 16.1 0.10 0.25 0.25 80 1013.8
20260904031534 17 59 4.8 16.1 0.10 0.25 0.25 80 1014.0
20260904031020 17 11 4.8 14.5 0.10 0.25 0.25 82 1014.2
20260904030520 16 351 4.8 14.5 0.10 0.25 0.25 83 1014.1
20260904030033 16 142 4.8 14.5 0.10 0.25 0.25 84 1014.4
20260904025519 16 94 4.8 11.3 0.13 0.25 0.25 84 1014.3
20260904025016 16 120 1.6 14.5 0.18 0.25 0.25 83 1014.4
20260904024534 15 121 4.8 14.5 0.18 0.25 0.25 83 1014.4
20260904024021 15 79 3.2 11.3 0.20 0.25 0.25 82 1014.5
20260904023516 15 78 3.2 11.3 0.23 0.25 0.25 81 1014.8
20260904023039 15 80 3.2 11.3 0.23 0.25 0.25 81 1015.2
20260904022516 15 86 1.6 6.4 0.18 0.18 0.18 80 1015.7
20260904022019 15 86 0.0 4.8 0.13 0.15 0.13 79 1016.7
20260904021539 15 86 1.6 4.8 0.13 0.15 0.13 79 1016.2
20260904021022 15 86 0.0 3.2 0.13 0.15 0.13 78 1016.6
20260904020520 15 0 0.0 4.8 0.13 0.15 0.13 78 1017.3
20260904020032 15 86 0.0 9.7 0.13 0.15 0.13 78 1016.8
20260904015515 15 86 3.2 12.9 0.10 0.13 0.10 77 1016.2
20260904015020 15 49 4.8 14.5 0.08 0.08 0.08 76 1016.1
20260904014545 15 28 4.8 14.5 0.05 0.08 0.05 75 1016.4
20260904014018 15 57 3.2 8.0 0.03 0.05 0.03 75 1016.7
20260904013515 15 0 0.0 8.0 0.00 0.03 0.00 75 1017.1
20260904013039 15 59 1.6 6.4 0.00 0.00 0.00 74 1017.3
20260904012516 15 58 1.6 14.5 0.00 0.00 0.00 74 1017.1
20260904012019 15 62 3.2 14.5 0.00 0.00 0.00 74 1017.2
20260904011534 16 45 4.8 12.9 0.00 0.00 0.00 74 1017.2
20260904011015 16 48 4.8 14.5 0.00 0.00 0.00 73 1017.0
20260904010516 16 42 6.4 16.1 0.00 0.00 0.00 73 1017.1
20260904010034 16 355 4.8 16.1 0.00 0.00 0.00 72 1017.3
20260904005518 16 34 4.8 16.1 0.00 0.00 0.00 71 1017.7
20260904005019 16 19 6.4 17.7 0.00 0.00 0.00 70 1017.6
20260904004537 16 22 4.8 17.7 0.00 0.00 0.00 70 1017.7
20260904004016 16 318 6.4 17.7 0.00 0.00 0.00 69 1018.2
20260904003519 16 65 8.0 16.1 0.00 0.00 0.00 69 1018.2
20260904003034 16 43 4.8 16.1 0.00 0.00 0.00 70 1018.3
20260904002518 17 22 6.4 16.1 0.00 0.00 0.00 70 1018.4
20260904002016 17 51 4.8 16.1 0.00 0.00 0.00 70 1018.3
20260904001533 17 24 6.4 16.1 0.00 0.00 0.00 69 1018.1
20260904001015 17 59 4.8 14.5 0.00 0.00 0.00 70 1018.2
20260904000516 17 355 1.6 12.9 0.00 0.00 0.00 70 1017.8
20260904000036 17 348 3.2 11.3 0.00 0.00 0.00 70 1017.9
20260903235518 17 360 3.2 12.9 0.00 0.00 0.00 71 1017.7
20260903235019 16 355 4.8 12.9 0.00 0.00 0.00 71 1017.6
20260903234535 16 355 3.2 12.9 0.00 0.00 0.00 71 1017.7
20260903234019 16 15 3.2 12.9 0.00 0.00 0.00 72 1017.7
20260903233521 16 20 4.8 16.1 0.00 0.00 0.00 72 1017.7
20260903233033 16 40 4.8 16.1 0.00 0.00 0.00 72 1017.7
20260903232518 16 81 4.8 16.1 0.00 0.00 0.00 73 1017.7
20260903232018 16 46 3.2 12.9 0.00 0.00 0.00 73 1017.8
20260903231534 15 26 3.2 12.9 0.00 0.00 0.00 73 1018.1
20260903231017 15 15 1.6 12.9 0.00 0.00 0.00 74 1018.2
20260903230519 15 78 4.8 12.9 0.00 0.00 0.00 74 1018.1
20260903230035 15 355 4.8 11.3 0.00 0.00 0.00 74 1018.0
20260903225523 15 53 3.2 12.9 0.00 0.00 0.00 74 1018.1
20260903225023 15 37 4.8 12.9 0.00 0.00 0.00 75 1018.0
20260903224534 15 9 3.2 11.3 0.00 0.00 0.00 76 1017.9
20260903224018 15 57 1.6 12.9 0.00 0.00 0.00 76 1017.9
20260903223518 15 70 4.8 12.9 0.00 0.00 0.00 76 1018.0
20260903223034 14 90 1.6 11.3 0.00 0.00 0.00 76 1018.1
20260903222523 14 0 1.6 11.3 0.00 0.00 0.00 76 1018.0
20260903222020 14 18 3.2 11.3 0.00 0.00 0.00 76 1018.1
20260903221537 14 19 1.6 8.0 0.00 0.00 0.00 77 1018.2
20260903221019 14 22 3.2 8.0 0.00 0.00 0.00 77 1018.3
20260903220520 14 26 3.2 11.3 0.00 0.00 0.00 77 1018.2
20260903220042 14 45 3.2 11.3 0.00 0.00 0.00 78 1018.0
20260903215522 14 27 3.2 8.0 0.00 0.00 0.00 78 1017.8
20260903215015 13 360 1.6 9.7 0.00 0.00 0.00 78 1017.8
20260903214536 13 360 3.2 9.7 0.00 0.00 0.00 78 1018.0
20260903214023 13 360 3.2 8.0 0.00 0.00 0.00 78 1018.0
20260903213520 13 360 0.0 6.4 0.00 0.00 0.00 78 1018.0
20260903213036 13 360 1.6 17.7 0.00 0.00 0.00 78 1017.9
20260903212520 13 0 3.2 17.7 0.00 0.00 0.00 78 1017.6
20260903212019 13 360 1.6 12.9 0.00 0.00 0.00 78 1017.4
20260903211535 13 360 3.2 12.9 0.00 0.00 0.00 78 1017.4
20260903211018 13 96 3.2 6.4 0.00 0.00 0.00 78 1017.3
20260903210519 13 0 0.0 4.8 0.00 0.00 0.00 78 1017.6
20260903210034 13 100 0.0 8.0 0.00 0.00 0.00 79 1017.5
20260903205516 13 360 1.6 8.0 0.00 0.00 0.00 79 1017.6
20260903205018 13 360 1.6 9.7 0.00 0.00 0.00 79 1017.9
20260903204534 13 360 1.6 9.7 0.00 0.00 0.00 79 1017.8
20260903204018 13 0 1.6 12.9 0.00 0.00 0.00 79 1017.8
20260903203517 13 0 1.6 12.9 0.00 0.00 0.00 80 1017.9
20260903203033 13 118 3.2 12.9 0.00 0.00 0.00 80 1018.0
20260903202520 13 96 3.2 11.3 0.00 0.00 0.00 80 1017.8
20260903202019 13 21 1.6 11.3 0.00 0.00 0.00 80 1018.1
20260903201535 13 27 0.0 8.0 0.00 0.00 0.00 81 1018.3
20260903201023 13 25 1.6 8.0 0.00 0.00 0.00 81 1018.3
20260903200518 13 13 1.6 12.9 0.00 0.00 0.00 81 1018.4
20260903200034 13 13 3.2 12.9 0.00 0.00 0.00 81 1018.3
20260903195516 12 17 3.2 8.0 0.00 0.00 0.00 81 1018.3
20260903195020 12 0 1.6 6.4 0.00 0.00 0.00 81 1018.5
20260903194534 12 17 3.2 8.0 0.00 0.00 0.00 81 1018.5
20260903194017 12 17 1.6 12.9 0.00 0.00 0.00 82 1018.5
20260903193518 12 16 3.2 12.9 0.00 0.00 0.00 82 1018.4
20260903193035 12 11 3.2 12.9 0.00 0.00 0.00 82 1018.6
20260903192519 12 18 3.2 8.0 0.00 0.00 0.00 82 1018.7
20260903192019 12 18 3.2 8.0 0.00 0.00 0.00 82 1018.8
20260903191532 12 26 1.6 12.9 0.00 0.00 0.00 82 1018.9
20260903191019 12 0 3.2 12.9 0.00 0.00 0.00 82 1018.9
20260903190517 12 34 3.2 9.7 0.00 0.00 0.00 82 1018.7
20260903190037 12 43 1.6 9.7 0.00 0.00 0.00 82 1018.8
20260903185515 12 49 1.6 9.7 0.00 0.00 0.00 82 1018.6
20260903185018 12 59 3.2 11.3 0.00 0.00 0.00 81 1018.3
20260903184537 12 58 3.2 11.3 0.00 0.00 0.00 81 1018.1
20260903184016 12 83 3.2 9.7 0.00 0.00 0.00 81 1018.2
20260903183520 12 65 0.0 8.0 0.00 0.00 0.00 80 1018.6
20260903183035 12 66 0.0 12.9 0.00 0.00 0.00 80 1018.7
20260903182522 12 74 1.6 12.9 0.00 0.00 0.00 80 1018.2
20260903182021 12 257 1.6 9.7 0.00 0.00 0.00 80 1018.2
20260903181536 12 258 0.0 4.8 0.00 0.00 0.00 79 1018.5
20260903181020 12 0 0.0 3.2 0.00 0.00 0.00 79 1018.9
20260903180519 12 0 0.0 0.0 0.00 0.00 0.00 79 1019.2
20260903180045 12 0 0.0 0.0 0.00 0.00 0.00 78 1019.3
20260903175518 12 0 0.0 0.0 0.00 0.00 0.00 78 1019.4
20260903175019 12 0 0.0 0.0 0.00 0.00 0.00 78 1019.4
20260903174536 12 0 0.0 0.0 0.00 0.00 0.00 78 1019.3
20260903174018 12 0 0.0 0.0 0.00 0.00 0.00 78 1019.3
20260903173520 13 0 0.0 0.0 0.00 0.00 0.00 78 1019.3
20260903173034 13 0 0.0 0.0 0.00 0.00 0.00 78 1019.4
20260903172518 13 0 0.0 3.2 0.00 0.00 0.00 78 1019.7
20260903172017 13 0 0.0 6.4 0.00 0.00 0.00 77 1019.8
20260903171543 13 0 1.6 6.4 0.00 0.00 0.00 77 1020.0
20260903171019 13 256 1.6 6.4 0.00 0.00 0.00 77 1020.2
20260903170516 13 244 0.0 6.4 0.00 0.00 0.00 77 1020.2
20260903170043 13 0 0.0 3.2 0.00 0.00 0.00 76 1020.1
20260903165522 13 0 0.0 3.2 0.00 0.00 0.00 76 1020.1
20260903165018 13 0 0.0 1.6 0.00 0.00 0.00 76 1020.1
20260903164542 13 0 0.0 1.6 0.00 0.00 0.00 76 1020.1
20260903164019 13 0 0.0 1.6 0.00 0.00 0.00 75 1020.1
20260903163517 13 0 0.0 1.6 0.00 0.00 0.00 75 1020.3
20260903163036 13 0 0.0 0.0 0.00 0.00 0.00 75 1020.4
20260903162515 13 0 0.0 0.0 0.00 0.00 0.00 75 1020.5
20260903162018 13 0 0.0 0.0 0.00 0.00 0.00 75 1020.6
20260903161533 13 0 0.0 0.0 0.00 0.00 0.00 74 1020.5
20260903161019 13 0 0.0 0.0 0.00 0.00 0.00 74 1020.4
20260903160522 13 0 0.0 0.0 0.00 0.00 0.00 74 1020.3
20260903160038 13 0 0.0 3.2 0.00 0.00 0.00 74 1020.4
20260903155518 13 0 0.0 3.2 0.00 0.00 0.00 74 1020.2
20260903155020 13 0 0.0 4.8 0.00 0.00 0.00 74 1020.3
20260903154538 13 0 0.0 4.8 0.00 0.00 0.00 74 1020.3
20260903154020 13 0 0.0 0.0 0.00 0.00 0.00 74 1020.5
20260903153520 13 0 0.0 0.0 0.00 0.00 0.00 74 1020.5
20260903153032 13 0 0.0 0.0 0.00 0.00 0.00 74 1020.6
20260903152516 13 0 0.0 3.2 0.00 0.00 0.00 74 1020.7
20260903152016 13 0 0.0 3.2 0.00 0.00 0.00 74 1020.8
20260903151537 13 0 0.0 3.2 0.00 0.00 0.00 74 1020.9
20260903151018 13 0 0.0 1.6 0.00 0.00 0.00 73 1020.9
20260903150523 13 0 0.0 1.6 0.00 0.00 0.00 73 1020.9
20260903150057 13 0 0.0 1.6 0.00 0.00 0.00 73 1021.0
20260903145517 13 0 0.0 3.2 0.00 0.00 0.00 73 1021.1
20260903145017 13 0 0.0 3.2 0.00 0.00 0.00 73 1021.1
20260903144537 13 0 0.0 3.2 0.00 0.00 0.00 73 1021.2
20260903144022 13 0 0.0 1.6 0.00 0.00 0.00 73 1021.3
20260903143519 13 0 0.0 1.6 0.00 0.00 0.00 73 1021.4
20260903143035 13 0 0.0 0.0 0.00 0.00 0.00 73 1021.4
20260903142518 13 0 0.0 1.6 0.00 0.00 0.00 73 1021.5
20260903142022 13 0 0.0 3.2 0.00 0.00 0.00 73 1021.4
20260903141536 13 0 0.0 3.2 0.00 0.00 0.00 73 1021.5
20260903141018 13 0 0.0 3.2 0.00 0.00 0.00 72 1021.6
20260903140518 13 0 0.0 0.0 0.00 0.00 0.00 72 1021.6
20260903140039 13 0 0.0 0.0 0.00 0.00 0.00 72 1021.6
20260903135516 13 0 0.0 0.0 0.00 0.00 0.00 72 1021.6
20260903135016 13 0 0.0 0.0 0.00 0.00 0.00 72 1021.7
20260903134531 13 0 0.0 0.0 0.00 0.00 0.00 72 1021.9
20260903134021 13 0 0.0 0.0 0.00 0.00 0.00 72 1021.9
20260903133515 13 0 0.0 0.0 0.00 0.00 0.00 72 1021.8
20260903133038 13 0 0.0 0.0 0.00 0.00 0.00 72 1022.0
20260903132522 13 0 0.0 0.0 0.00 0.00 0.00 72 1021.9
20260903132020 13 0 0.0 0.0 0.00 0.00 0.00 72 1022.1
20260903131536 13 0 0.0 0.0 0.00 0.00 0.00 72 1022.0
20260903131019 13 0 0.0 0.0 0.00 0.00 0.00 72 1022.1
20260903130519 13 0 0.0 0.0 0.00 0.00 0.00 72 1022.2
20260903130035 13 0 0.0 0.0 0.00 0.00 0.00 72 1022.2
20260903125518 13 0 0.0 0.0 0.00 0.00 0.00 72 1022.3
20260903125016 13 0 0.0 0.0 0.00 0.00 0.00 72 1022.3
20260903124543 13 0 0.0 0.0 0.00 0.00 0.00 72 1022.4
20260903124019 13 0 0.0 0.0 0.00 0.00 0.00 72 1022.3
20260903123522 13 0 0.0 0.0 0.00 0.00 0.00 72 1022.4
20260903123036 13 0 0.0 0.0 0.00 0.00 0.00 72 1022.5
20260903122516 13 0 0.0 0.0 0.00 0.00 0.00 72 1022.6
20260903122016 13 0 0.0 0.0 0.00 0.00 0.00 72 1022.6
20260903121532 13 0 0.0 0.0 0.00 0.00 0.00 72 1022.9
20260903121017 13 0 0.0 0.0 0.00 0.00 0.00 71 1022.9
20260903120522 13 0 0.0 0.0 0.00 0.00 0.00 71 1022.8
20260903120031 13 0 0.0 0.0 0.00 0.00 0.00 71 1022.9
20260903115515 13 0 0.0 0.0 0.00 0.00 0.00 71 1023.0
20260903115019 13 0 0.0 0.0 0.00 0.00 0.00 71 1022.9
20260903114535 13 0 0.0 0.0 0.00 0.00 0.00 71 1023.0
20260903114021 13 0 0.0 0.0 0.00 0.00 0.00 70 1023.0
20260903113519 13 0 0.0 0.0 0.00 0.00 0.00 70 1023.0
20260903113033 13 0 0.0 0.0 0.00 0.00 0.00 70 1022.8
20260903112519 13 0 0.0 0.0 0.00 0.00 0.00 70 1022.8
20260903112019 13 0 0.0 0.0 0.00 0.00 0.00 70 1022.8
20260903111533 13 0 0.0 0.0 0.00 0.00 0.00 69 1022.8
20260903111018 13 0 0.0 0.0 0.00 0.00 0.00 69 1022.7
20260903110517 13 0 0.0 0.0 0.00 0.00 0.00 69 1022.7
20260903110036 13 0 0.0 0.0 0.00 0.00 0.00 68 1022.6
20260903105520 13 0 0.0 0.0 0.00 0.00 0.00 68 1022.6
20260903105021 13 0 0.0 0.0 0.00 0.00 0.00 68 1022.6
20260903104535 13 0 0.0 0.0 0.00 0.00 0.00 68 1022.6
20260903104022 13 0 0.0 0.0 0.00 0.00 0.00 67 1022.4
20260903103516 13 0 0.0 0.0 0.00 0.00 0.00 67 1022.5
20260903103032 13 0 0.0 0.0 0.00 0.00 0.00 67 1022.4
20260903102517 13 0 0.0 0.0 0.00 0.00 0.00 67 1022.2
20260903102019 14 0 0.0 0.0 0.00 0.00 0.00 66 1022.2
20260903101536 14 0 0.0 0.0 0.00 0.00 0.00 67 1022.2
20260903101017 14 0 0.0 0.0 0.00 0.00 0.00 67 1022.0
20260903100519 14 0 0.0 0.0 0.00 0.00 0.00 67 1022.0
20260903100036 14 0 0.0 0.0 0.00 0.00 0.00 67 1021.9
20260903095525 14 0 0.0 0.0 0.00 0.00 0.00 67 1021.8
20260903095019 14 0 0.0 0.0 0.00 0.00 0.00 67 1021.8
20260903094534 15 0 0.0 0.0 0.00 0.00 0.00 67 1021.8
20260903094016 15 0 0.0 0.0 0.00 0.00 0.00 67 1021.8
20260903093519 15 0 0.0 0.0 0.00 0.00 0.00 67 1021.8
20260903093035 15 0 0.0 0.0 0.00 0.00 0.00 67 1021.9
20260903092520 15 0 0.0 0.0 0.00 0.00 0.00 66 1021.9
20260903092018 15 0 0.0 0.0 0.00 0.00 0.00 66 1021.7
20260903091534 15 0 0.0 0.0 0.00 0.00 0.00 66 1021.7
20260903091016 15 0 0.0 0.0 0.00 0.00 0.00 66 1021.6
20260903090518 15 0 0.0 0.0 0.00 0.00 0.00 66 1021.6
20260903090034 15 0 0.0 0.0 0.00 0.00 0.00 66 1021.5
20260903085520 15 0 0.0 0.0 0.00 0.00 0.00 66 1021.5
20260903085022 15 0 0.0 3.2 0.00 0.00 0.00 65 1021.5
20260903084543 15 0 0.0 3.2 0.00 0.00 0.00 65 1021.5
20260903084016 15 0 0.0 3.2 0.00 0.00 0.00 65 1021.5
20260903083516 15 0 0.0 3.2 0.00 0.00 0.00 65 1021.6
20260903083035 15 0 0.0 4.8 0.00 0.00 0.00 65 1021.5
20260903082515 15 0 0.0 4.8 0.00 0.00 0.00 64 1021.4
20260903082018 15 0 0.0 4.8 0.00 0.00 0.00 64 1021.3
20260903081535 15 0 0.0 4.8 0.00 0.00 0.00 64 1021.3
20260903081017 16 238 0.0 4.8 0.00 0.00 0.00 64 1021.1
20260903080516 16 238 0.0 4.8 0.00 0.00 0.00 64 1021.2
20260903080041 16 238 0.0 4.8 0.00 0.00 0.00 64 1021.0
20260903075521 16 0 0.0 4.8 0.00 0.00 0.00 64 1021.0
20260903075019 16 0 0.0 4.8 0.00 0.00 0.00 64 1020.9
20260903074541 16 237 1.6 8.0 0.00 0.00 0.00 63 1020.9
20260903074024 16 238 1.6 8.0 0.00 0.00 0.00 64 1020.8
20260903073519 16 238 3.2 8.0 0.00 0.00 0.00 64 1020.8
20260903073033 16 241 1.6 8.0 0.00 0.00 0.00 63 1020.6
20260903072519 16 0 0.0 11.3 0.00 0.00 0.00 63 1020.7
20260903072018 16 246 3.2 11.3 0.00 0.00 0.00 62 1020.8
20260903071535 16 242 1.6 11.3 0.00 0.00 0.00 62 1020.8
20260903071017 16 248 3.2 11.3 0.00 0.00 0.00 62 1020.9
20260903070515 16 270 1.6 9.7 0.00 0.00 0.00 62 1020.8
20260903070037 16 275 3.2 9.7 0.00 0.00 0.00 62 1020.9
20260903065521 17 0 3.2 9.7 0.00 0.00 0.00 62 1020.8
20260903065020 17 273 1.6 9.7 0.00 0.00 0.00 63 1020.6
20260903064533 16 273 1.6 9.7 0.00 0.00 0.00 62 1020.5
20260903064017 17 279 1.6 11.3 0.00 0.00 0.00 62 1020.5
20260903063522 17 304 3.2 11.3 0.00 0.00 0.00 61 1020.5
20260903063031 17 251 1.6 8.0 0.00 0.00 0.00 62 1020.5
20260903062518 17 0 1.6 12.9 0.00 0.00 0.00 61 1020.5
20260903062019 17 275 3.2 12.9 0.00 0.00 0.00 61 1020.5
20260903061538 17 215 4.8 9.7 0.00 0.00 0.00 61 1020.5
20260903061022 17 222 3.2 11.3 0.00 0.00 0.00 61 1020.5
20260903060518 17 202 1.6 17.7 0.00 0.00 0.00 62 1020.4
20260903060041 17 252 4.8 17.7 0.00 0.00 0.00 63 1020.5
20260903055519 17 113 3.2 12.9 0.00 0.00 0.00 65 1020.5
20260903055020 17 226 3.2 12.9 0.00 0.00 0.00 67 1020.4
20260903054539 17 205 3.2 12.9 0.00 0.00 0.00 68 1020.6
20260903054019 16 228 3.2 17.7 0.00 0.00 0.00 68 1020.5
20260903053522 16 229 4.8 17.7 0.00 0.00 0.00 67 1020.6
20260903053045 16 249 3.2 16.1 0.00 0.00 0.00 67 1020.4
20260903052521 16 256 3.2 16.1 0.00 0.00 0.00 67 1020.4
20260903052016 16 206 4.8 16.1 0.00 0.00 0.00 67 1020.4
20260903051537 16 256 4.8 14.5 0.00 0.00 0.00 67 1020.3
20260903051017 16 268 3.2 16.1 0.00 0.00 0.00 68 1020.3
20260903050519 16 203 6.4 16.1 0.00 0.00 0.00 68 1020.3
20260903050038 16 148 3.2 11.3 0.00 0.00 0.00 69 1020.3